Погода в Озъяге

Россия / Республика Коми     61°49′11″N   53°26′37″E
темп.,
°C
ветер,
м/с
пор.,
м/с
влажн.,
%
обл.,
%
осадки,
мм/ч
давл.,
гПа
погр.,
м
20 мая, пт
пт2000:00+1сз3892100 0.0 1005541
03:00+1сз41096100 0.4 1005500
06:00+1ссз41097100 1.3 1005485
09:00+2ссз4995100 2.1 1007659
12:00+3ссз4986100 1.1 1008971
15:00+6ссз3863100 1.3 10091577
18:00+6ссз2665100 0.0 1009269
21:00+3сз2678100 0.0 1009141
21 мая, сб
сб2100:00+3с41173100 0.0 1009632
03:00+1с3979100 0.0 1009620
06:00+1с4777100 0.0 1009741
09:00+1с4674100 0.1 1009952
12:00+2с4780100 0.7 1008892
15:00+2с4894100 1.8 1008721
18:00+2с3897100 0.6 1007437
21:00+1ссв41098100 1.4 1006606
22 мая, вс
вс2200:00+1ссв41098100 1.9 1004709
03:00+1ссв41198100 3.5 1003793
06:00+1ссв41098100 0.8 1001811
09:00+2ссв51397100 2.2 999787
12:00+1ссв61497100 2.8 998852
15:00+2ссв61397100 4.3 997969
18:00+1ссв51297100 0.3 996924
21:00+1ссв41198100 0.8 994769
23 мая, пн
пн2300:00+1ссв41098100 0.8 993639
03:00+1ссв3998100 1.4 992559
06:00+1ссв2799100 1.4 992307
09:00+2ссв25100100 2.6 992316
12:00+2в13100100 0.6 993248
15:00+2вюв12100100 0.8 994306
18:00+3всв119997 0.1 995133
21:00+1всв129863 0.1 99661
24 мая, вт
вт2400:00−2св129943 0.0 99833
03:00−2в139983 0.0 100082
06:00+1всв239793 0.0 1002253
09:00+4в2490100 0.0 1004610
12:00+5вюв259193 0.4 1007556
15:00+7вюв347988 1.1 10081075
18:00+4юв249579 0.2 1010257
21:00+1в229859 0.2 101240